QPF
0.08 0.10 0.14 0.16 0.21 0.29 0.37 0.52 0.69 0.80 0.81 0.81 0.85 0.82 0.69 0.61 0.55 0.47 0.38 0.28 0.23 0.19 0.15 0.10 0.08 0.07 0.05 0.05 0.03 0.02 0.01 0.01 0.01 0.01 0.01 0.01 0.01 0.01 0.00 0.01 0.01 0.00 0.01
0.07 0.10 0.12 0.13 0.18 0.26 0.35 0.50 0.66 0.66 0.62 0.62 0.66 0.62 0.52 0.43 0.37 0.32 0.23 0.15 0.11 0.10 0.10 0.09 0.05 0.04 0.02 0.01 0.01 0.01 0.00 0.00 0.00 0.00 0.00 0.00 0.00 0.00 0.00 0.00 0.00 0.00 0.00
0.08 0.08 0.10 0.12 0.14 0.18 0.26 0.35 0.39 0.39 0.41 0.44 0.43 0.39 0.34 0.28 0.23 0.18 0.15 0.12 0.10 0.08 0.07 0.07 0.05 0.02 0.01 0.01 0.00 0.00 0.00 0.00 0.00 0.00 0.00 0.00 0.00 0.00 0.00 0.00 0.00 0.00 0.00
0.07 0.10 0.12 0.14 0.13 0.12 0.12 0.14 0.17 0.19 0.18 0.18 0.20 0.21 0.18 0.15 0.15 0.15 0.14 0.14 0.13 0.11 0.08 0.07 0.05 0.03 0.01 0.01 0.00 0.00 0.00 0.00 0.00 0.00 0.00 0.00 0.00 0.00 0.00 0.00 0.00 0.00 0.00
0.06 0.06 0.07 0.07 0.07 0.06 0.06 0.06 0.07 0.08 0.09 0.10 0.11 0.13 0.14 0.13 0.15 0.16 0.18 0.20 0.18 0.13 0.09 0.08 0.07 0.05 0.04 0.02 0.01 0.00 0.00 0.00 0.00 0.00 0.00 0.00 0.00 0.00 0.00 0.00 0.00 0.00 0.00
0.05 0.05 0.05 0.04 0.04 0.04 0.04 0.04 0.04 0.05 0.06 0.08 0.10 0.11 0.12 0.13 0.14 0.15 0.15 0.14 0.14 0.11 0.09 0.08 0.07 0.06 0.05 0.04 0.02 0.01 0.01 0.00 0.00 0.00 0.00 0.00 0.00 0.00 0.00 0.00 0.00 0.00 0.00
0.03 0.03 0.04 0.03 0.03 0.03 0.03 0.03 0.03 0.03 0.04 0.05 0.07 0.08 0.09 0.10 0.10 0.11 0.13 0.12 0.12 0.11 0.10 0.09 0.08 0.08 0.06 0.05 0.04 0.03 0.01 0.01 0.00 0.00 0.00 0.00 0.00 0.00 0.00 0.00 0.00 0.00 0.00
0.01 0.01 0.01 0.01 0.01 0.01 0.01 0.01 0.01 0.02 0.02 0.02 0.03 0.03 0.04 0.05 0.06 0.07 0.08 0.08 0.09 0.09 0.09 0.08 0.08 0.08 0.08 0.06 0.05 0.03 0.02 0.02 0.01 0.00 0.00 0.00 0.00 0.00 0.00 0.00 0.01 0.01 0.00
0.00 0.00 0.00 0.00 0.00 0.00 0.00 0.00 0.00 0.00 0.00 0.00 0.01 0.01 0.01 0.01 0.02 0.02 0.03 0.04 0.05 0.05 0.06 0.07 0.08 0.08 0.08 0.07 0.06 0.05 0.04 0.02 0.01 0.01 0.01 0.01 0.00 0.00 0.00 0.00 0.01 0.01 0.01
0.00 0.00 0.00 0.00 0.00 0.00 0.00 0.00 0.00 0.00 0.00 0.00 0.00 0.00 0.00 0.00 0.00 0.00 0.01 0.01 0.02 0.03 0.04 0.05 0.06 0.07 0.08 0.07 0.07 0.06 0.05 0.04 0.02 0.01 0.01 0.00 0.00 0.00 0.00 0.00 0.00 0.01 0.01
0.00 0.00 0.00 0.00 0.00 0.00 0.00 0.00 0.00 0.00 0.00 0.00 0.00 0.00 0.00 0.00 0.00 0.00 0.00 0.00 0.00 0.01 0.01 0.02 0.03 0.04 0.05 0.06 0.07 0.07 0.07 0.06 0.05 0.03 0.02 0.01 0.00 0.00 0.00 0.00 0.00 0.00 0.01
0.00 0.00 0.00 0.00 0.00 0.00 0.00 0.00 0.00 0.00 0.00 0.00 0.00 0.00 0.00 0.00 0.00 0.00 0.00 0.00 0.00 0.00 0.00 0.00 0.01 0.01 0.02 0.03 0.03 0.05 0.06 0.07 0.07 0.06 0.05 0.03 0.01 0.00 0.00 0.00 0.00 0.00 0.01
0.00 0.00 0.00 0.00 0.00 0.00 0.00 0.00 0.00 0.00 0.00 0.00 0.00 0.00 0.00 0.00 0.00 0.00 0.00 0.00 0.00 0.00 0.00 0.00 0.00 0.00 0.01 0.01 0.01 0.01 0.02 0.03 0.04 0.05 0.05 0.04 0.03 0.01 0.01 0.00 0.00 0.00 0.00
0.00 0.00 0.00 0.00 0.00 0.00 0.00 0.00 0.00 0.00 0.00 0.00 0.00 0.00 0.00 0.00 0.00 0.00 0.00 0.00 0.00 0.00 0.00 0.00 0.00 0.00 0.00 0.00 0.01 0.01 0.01 0.01 0.01 0.01 0.02 0.03 0.03 0.02 0.02 0.01 0.00 0.00 0.00
0.00 0.00 0.00 0.00 0.00 0.00 0.00 0.00 0.00 0.00 0.00 0.00 0.00 0.00 0.00 0.00 0.00 0.00 0.00 0.00 0.00 0.00 0.00 0.00 0.00 0.00 0.00 0.00 0.00 0.00 0.01 0.01 0.01 0.01 0.01 0.01 0.01 0.01 0.02 0.02 0.01 0.01 0.01
0.00 0.00 0.00 0.00 0.00 0.00 0.00 0.00 0.00 0.00 0.00 0.00 0.00 0.00 0.00 0.00 0.00 0.00 0.00 0.00 0.00 0.00 0.00 0.00 0.00 0.00 0.00 0.00 0.00 0.00 0.00 0.00 0.01 0.01 0.01 0.01 0.01 0.01 0.01 0.01 0.01 0.01 0.01
0.00 0.00 0.00 0.00 0.00 0.00 0.00 0.00 0.00 0.00 0.00 0.00 0.00 0.00 0.01 0.00 0.00 0.00 0.00 0.00 0.00 0.00 0.00 0.00 0.00 0.00 0.00 0.00 0.00 0.00 0.00 0.00 0.00 0.01 0.01 0.01 0.02 0.02 0.02 0.02 0.02 0.01 0.01
0.00 0.00 0.00 0.00 0.00 0.00 0.00 0.00 0.00 0.00 0.01 0.00 0.00 0.01 0.01 0.01 0.01 0.01 0.01 0.01 0.01 0.00 0.00 0.00 0.00 0.00 0.00 0.00 0.00 0.00 0.00 0.00 0.00 0.00 0.01 0.01 0.02 0.02 0.03 0.03 0.02 0.02 0.01
0.00 0.00 0.00 0.00 0.00 0.00 0.00 0.00 0.00 0.01 0.01 0.01 0.01 0.02 0.02 0.03 0.03 0.02 0.02 0.01 0.01 0.01 0.00 0.00 0.00 0.00 0.00 0.00 0.00 0.00 0.00 0.00 0.00 0.01 0.01 0.01 0.02 0.03 0.04 0.04 0.03 0.03 0.02
0.00 0.00 0.00 0.00 0.00 0.00 0.00 0.01 0.01 0.01 0.01 0.02 0.02 0.03 0.03 0.03 0.03 0.03 0.03 0.02 0.02 0.01 0.01 0.00 0.00 0.00 0.00 0.00 0.00 0.00 0.00 0.00 0.01 0.02 0.02 0.02 0.02 0.03 0.04 0.04 0.03 0.03 0.02
0.00 0.00 0.00 0.00 0.00 0.00 0.01 0.01 0.01 0.02 0.02 0.02 0.02 0.03 0.04 0.04 0.04 0.04 0.03 0.03 0.03 0.02 0.01 0.01 0.00 0.00 0.00 0.00 0.00 0.00 0.00 0.00 0.01 0.03 0.04 0.04 0.05 0.05 0.05 0.05 0.04 0.04 0.04
0.00 0.00 0.00 0.00 0.00 0.01 0.01 0.02 0.02 0.02 0.02 0.03 0.03 0.03 0.04 0.05 0.05 0.05 0.04 0.04 0.04 0.04 0.02 0.01 0.01 0.00 0.00 0.00 0.00 0.00 0.00 0.01 0.01 0.02 0.05 0.07 0.09 0.10 0.09 0.08 0.07 0.07 0.06
0.00 0.00 0.00 0.00 0.00 0.01 0.01 0.03 0.03 0.03 0.04 0.04 0.04 0.04 0.04 0.05 0.06 0.06 0.05 0.04 0.03 0.03 0.02 0.02 0.01 0.01 0.00 0.00 0.00 0.00 0.01 0.01 0.01 0.01 0.04 0.08 0.11 0.14 0.14 0.11 0.10 0.10 0.09
0.00 0.00 0.00 0.00 0.01 0.01 0.01 0.03 0.04 0.05 0.05 0.05 0.04 0.04 0.05 0.05 0.05 0.05 0.05 0.04 0.04 0.03 0.02 0.02 0.01 0.01 0.01 0.00 0.00 0.01 0.01 0.01 0.01 0.02 0.04 0.09 0.15 0.20 0.21 0.16 0.11 0.11 0.12
0.00 0.00 0.00 0.01 0.01 0.01 0.02 0.03 0.04 0.04 0.05 0.05 0.05 0.05 0.05 0.05 0.05 0.06 0.06 0.05 0.04 0.04 0.03 0.02 0.01 0.01 0.01 0.00 0.00 0.01 0.01 0.02 0.02 0.03 0.07 0.12 0.21 0.27 0.27 0.22 0.15 0.14 0.16
0.00 0.00 0.00 0.01 0.01 0.02 0.02 0.03 0.03 0.04 0.05 0.06 0.06 0.05 0.05 0.05 0.06 0.06 0.05 0.05 0.04 0.04 0.03 0.02 0.02 0.01 0.01 0.01 0.00 0.01 0.02 0.03 0.03 0.04 0.09 0.17 0.24 0.29 0.31 0.25 0.19 0.17 0.16
MSLP
1012.75 1012.68 1012.64 1012.59 1012.53 1012.44 1012.32 1012.19 1012.03 1011.85 1011.62 1011.33 1010.97 1010.55 1010.08 1009.60 1009.17 1008.85 1008.69 1008.71 1008.92 1009.29 1009.79 1010.34 1010.90 1011.40 1011.82 1012.14 1012.38 1012.56 1012.70 1012.82 1012.93 1013.02 1013.08 1013.08 1012.99 1012.83 1012.58 1012.28 1011.96 1011.67 1011.45
1013.03 1012.90 1012.80 1012.70 1012.59 1012.47 1012.34 1012.22 1012.11 1011.99 1011.84 1011.64 1011.36 1010.99 1010.54 1010.05 1009.56 1009.14 1008.85 1008.75 1008.83 1009.10 1009.52 1010.03 1010.57 1011.08 1011.52 1011.88 1012.15 1012.37 1012.55 1012.72 1012.88 1013.02 1013.13 1013.17 1013.13 1013.00 1012.76 1012.45 1012.10 1011.76 1011.46
1013.23 1013.08 1012.96 1012.82 1012.68 1012.52 1012.37 1012.25 1012.16 1012.09 1012.02 1011.91 1011.72 1011.42 1011.03 1010.55 1010.04 1009.56 1009.18 1008.95 1008.91 1009.05 1009.36 1009.77 1010.24 1010.71 1011.13 1011.49 1011.79 1012.04 1012.26 1012.48 1012.71 1012.92 1013.10 1013.23 1013.26 1013.18 1012.98 1012.68 1012.32 1011.94 1011.58
1013.43 1013.30 1013.17 1013.02 1012.84 1012.63 1012.44 1012.29 1012.19 1012.14 1012.12 1012.08 1011.97 1011.76 1011.44 1011.01 1010.52 1010.01 1009.58 1009.26 1009.10 1009.12 1009.29 1009.59 1009.96 1010.34 1010.71 1011.04 1011.33 1011.60 1011.87 1012.15 1012.44 1012.73 1013.00 1013.21 1013.33 1013.32 1013.18 1012.92 1012.58 1012.18 1011.78
1013.68 1013.59 1013.47 1013.30 1013.07 1012.81 1012.56 1012.34 1012.20 1012.14 1012.12 1012.12 1012.08 1011.96 1011.72 1011.37 1010.92 1010.44 1009.99 1009.62 1009.38 1009.28 1009.33 1009.51 1009.76 1010.04 1010.33 1010.61 1010.88 1011.15 1011.44 1011.76 1012.10 1012.47 1012.82 1013.11 1013.31 1013.38 1013.31 1013.11 1012.80 1012.41 1012.00
1013.98 1013.92 1013.81 1013.62 1013.35 1013.02 1012.68 1012.39 1012.18 1012.06 1012.03 1012.04 1012.05 1012.00 1011.85 1011.58 1011.22 1010.79 1010.36 1009.98 1009.69 1009.51 1009.46 1009.52 1009.66 1009.85 1010.05 1010.27 1010.49 1010.74 1011.03 1011.36 1011.74 1012.15 1012.55 1012.90 1013.17 1013.31 1013.31 1013.18 1012.92 1012.58 1012.20
1014.27 1014.24 1014.14 1013.93 1013.60 1013.20 1012.78 1012.40 1012.10 1011.92 1011.85 1011.86 1011.89 1011.89 1011.82 1011.64 1011.37 1011.02 1010.64 1010.29 1009.98 1009.77 1009.66 1009.64 1009.68 1009.77 1009.90 1010.04 1010.21 1010.42 1010.68 1011.00 1011.37 1011.78 1012.20 1012.58 1012.89 1013.08 1013.15 1013.09 1012.90 1012.63 1012.31
1014.50 1014.48 1014.36 1014.12 1013.76 1013.30 1012.81 1012.34 1011.97 1011.73 1011.61 1011.59 1011.63 1011.66 1011.65 1011.55 1011.37 1011.11 1010.80 1010.50 1010.22 1010.01 1009.87 1009.80 1009.78 1009.81 1009.86 1009.94 1010.05 1010.20 1010.41 1010.68 1011.01 1011.39 1011.78 1012.15 1012.46 1012.69 1012.81 1012.81 1012.72 1012.54 1012.31
1014.60 1014.56 1014.43 1014.17 1013.77 1013.27 1012.73 1012.22 1011.80 1011.50 1011.34 1011.29 1011.31 1011.35 1011.37 1011.33 1011.21 1011.03 1010.80 1010.56 1010.34 1010.16 1010.02 1009.94 1009.90 1009.88 1009.89 1009.91 1009.96 1010.05 1010.20 1010.40 1010.66 1010.97 1011.30 1011.63 1011.92 1012.15 1012.30 1012.37 1012.36 1012.29 1012.18
1014.54 1014.48 1014.32 1014.04 1013.62 1013.12 1012.57 1012.04 1011.59 1011.26 1011.06 1010.97 1010.96 1010.98 1011.00 1010.97 1010.89 1010.77 1010.60 1010.43 1010.27 1010.14 1010.05 1009.99 1009.95 1009.92 1009.91 1009.90 1009.90 1009.94 1010.01 1010.14 1010.32 1010.54 1010.80 1011.06 1011.30 1011.52 1011.68 1011.80 1011.87 1011.90 1011.92
1014.36 1014.26 1014.07 1013.77 1013.36 1012.86 1012.33 1011.82 1011.37 1011.03 1010.79 1010.66 1010.59 1010.56 1010.54 1010.49 1010.41 1010.31 1010.19 1010.08 1009.98 1009.91 1009.88 1009.87 1009.86 1009.86 1009.84 1009.82 1009.80 1009.79 1009.81 1009.87 1009.97 1010.11 1010.28 1010.47 1010.66 1010.84 1011.00 1011.14 1011.27 1011.39 1011.52
1014.13 1013.97 1013.75 1013.43 1013.03 1012.56 1012.06 1011.58 1011.15 1010.80 1010.54 1010.34 1010.21 1010.10 1009.99 1009.89 1009.77 1009.66 1009.56 1009.49 1009.45 1009.45 1009.48 1009.53 1009.58 1009.62 1009.63 1009.62 1009.60 1009.57 1009.55 1009.56 1009.60 1009.68 1009.78 1009.90 1010.03 1010.17 1010.31 1010.45 1010.61 1010.79 1011.00
1013.92 1013.71 1013.43 1013.10 1012.70 1012.25 1011.79 1011.34 1010.94 1010.58 1010.27 1010.01 1009.78 1009.56 1009.36 1009.16 1008.99 1008.84 1008.73 1008.69 1008.70 1008.77 1008.87 1008.99 1009.11 1009.20 1009.25 1009.27 1009.26 1009.24 1009.21 1009.20 1009.21 1009.25 1009.31 1009.38 1009.46 1009.55 1009.66 1009.78 1009.94 1010.14 1010.39
1013.79 1013.50 1013.18 1012.81 1012.40 1011.96 1011.53 1011.10 1010.70 1010.33 1009.97 1009.63 1009.29 1008.96 1008.64 1008.34 1008.09 1007.89 1007.78 1007.75 1007.80 1007.92 1008.09 1008.27 1008.45 1008.59 1008.70 1008.75 1008.78 1008.78 1008.77 1008.77 1008.79 1008.82 1008.86 1008.91 1008.96 1009.01 1009.07 1009.15 1009.28 1009.45 1009.70
1013.75 1013.38 1012.98 1012.56 1012.12 1011.68 1011.25 1010.83 1010.42 1010.01 1009.60 1009.17 1008.74 1008.29 1007.86 1007.46 1007.13 1006.89 1006.75 1006.73 1006.82 1006.98 1007.20 1007.44 1007.66 1007.85 1008.00 1008.09 1008.15 1008.19 1008.22 1008.26 1008.31 1008.37 1008.42 1008.47 1008.51 1008.53 1008.55 1008.57 1008.64 1008.75 1008.95
1013.74 1013.29 1012.81 1012.33 1011.85 1011.38 1010.93 1010.49 1010.06 1009.61 1009.14 1008.63 1008.11 1007.57 1007.04 1006.57 1006.18 1005.90 1005.75 1005.74 1005.84 1006.03 1006.29 1006.56 1006.81 1007.03 1007.20 1007.32 1007.42 1007.50 1007.58 1007.67 1007.77 1007.88 1007.98 1008.05 1008.09 1008.10 1008.07 1008.04 1008.02 1008.06 1008.18
1013.70 1013.16 1012.60 1012.05 1011.51 1011.00 1010.52 1010.05 1009.59 1009.10 1008.58 1008.02 1007.42 1006.82 1006.23 1005.71 1005.28 1004.99 1004.83 1004.83 1004.94 1005.15 1005.41 1005.69 1005.94 1006.16 1006.34 1006.48 1006.60 1006.72 1006.85 1007.00 1007.17 1007.35 1007.50 1007.62 1007.68 1007.68 1007.62 1007.53 1007.45 1007.40 1007.42
1013.55 1012.93 1012.29 1011.66 1011.06 1010.51 1009.99 1009.50 1009.01 1008.49 1007.94 1007.34 1006.71 1006.08 1005.47 1004.93 1004.49 1004.20 1004.04 1004.04 1004.15 1004.35 1004.60 1004.86 1005.09 1005.30 1005.46 1005.60 1005.73 1005.88 1006.06 1006.28 1006.52 1006.76 1006.98 1007.15 1007.24 1007.25 1007.17 1007.04 1006.90 1006.78 1006.73
1013.23 1012.54 1011.83 1011.15 1010.50 1009.91 1009.36 1008.85 1008.34 1007.81 1007.24 1006.64 1006.01 1005.37 1004.77 1004.24 1003.82 1003.53 1003.38 1003.37 1003.47 1003.64 1003.86 1004.08 1004.28 1004.44 1004.58 1004.72 1004.86 1005.03 1005.26 1005.53 1005.83 1006.14 1006.42 1006.64 1006.77 1006.79 1006.71 1006.56 1006.38 1006.21 1006.11
1012.75 1012.01 1011.26 1010.53 1009.85 1009.23 1008.67 1008.14 1007.63 1007.10 1006.54 1005.95 1005.33 1004.72 1004.14 1003.63 1003.23 1002.95 1002.80 1002.77 1002.85 1002.99 1003.15 1003.33 1003.48 1003.61 1003.73 1003.85 1004.00 1004.21 1004.47 1004.79 1005.15 1005.51 1005.84 1006.10 1006.26 1006.30 1006.23 1006.08 1005.89 1005.71 1005.60
1012.17 1011.39 1010.61 1009.86 1009.17 1008.54 1007.97 1007.43 1006.92 1006.40 1005.85 1005.28 1004.69 1004.10 1003.55 1003.06 1002.68 1002.40 1002.24 1002.19 1002.23 1002.32 1002.45 1002.57 1002.68 1002.79 1002.90 1003.03 1003.20 1003.43 1003.74 1004.10 1004.50 1004.90 1005.26 1005.55 1005.72 1005.78 1005.73 1005.59 1005.42 1005.26 1005.17
1011.56 1010.77 1009.98 1009.22 1008.52 1007.89 1007.31 1006.77 1006.26 1005.74 1005.20 1004.64 1004.07 1003.50 1002.97 1002.50 1002.12 1001.83 1001.66 1001.58 1001.57 1001.62 1001.70 1001.80 1001.89 1001.99 1002.11 1002.26 1002.47 1002.75 1003.09 1003.49 1003.91 1004.33 1004.71 1005.00 1005.18 1005.24 1005.20 1005.09 1004.95 1004.84 1004.80
1011.01 1010.22 1009.43 1008.68 1007.98 1007.34 1006.75 1006.20 1005.66 1005.13 1004.59 1004.02 1003.45 1002.89 1002.36 1001.89 1001.50 1001.20 1001.00 1000.89 1000.85 1000.87 1000.93 1001.01 1001.11 1001.23 1001.39 1001.58 1001.84 1002.17 1002.55 1002.97 1003.41 1003.83 1004.19 1004.46 1004.63 1004.69 1004.66 1004.57 1004.48 1004.43 1004.47
1010.57 1009.79 1009.01 1008.26 1007.56 1006.90 1006.29 1005.70 1005.14 1004.57 1003.99 1003.41 1002.82 1002.24 1001.70 1001.22 1000.82 1000.50 1000.28 1000.14 1000.08 1000.09 1000.15 1000.24 1000.37 1000.54 1000.75 1001.02 1001.33 1001.70 1002.12 1002.56 1002.99 1003.39 1003.71 1003.95 1004.09 1004.13 1004.10 1004.04 1003.99 1004.01 1004.14
1010.27 1009.50 1008.73 1007.97 1007.25 1006.56 1005.91 1005.27 1004.65 1004.02 1003.40 1002.77 1002.15 1001.55 1000.99 1000.50 1000.09 999.76 999.53 999.39 999.33 999.35 999.42 999.56 999.74 999.97 1000.25 1000.57 1000.95 1001.36 1001.79 1002.23 1002.64 1002.99 1003.27 1003.46 1003.55 1003.57 1003.54 1003.50 1003.50 1003.58 1003.79
1010.07 1009.31 1008.54 1007.77 1007.02 1006.28 1005.57 1004.86 1004.16 1003.47 1002.78 1002.10 1001.45 1000.83 1000.26 999.77 999.36 999.04 998.83 998.70 998.67 998.72 998.84 999.03 999.27 999.56 999.90 1000.28 1000.69 1001.12 1001.55 1001.96 1002.33 1002.63 1002.84 1002.97 1003.02 1003.01 1002.98 1002.97 1003.01 1003.17 1003.46
Thickness
5749 5749 5748 5747 5746 5743 5740 5737 5731 5731 5730 5725 5721 5716 5713 5713 5714 5714 5714 5715 5716 5716 5716 5716 5715 5715 5716 5715 5714 5713 5713 5713 5714 5714 5715 5720 5723 5726 5727 5728 5729 5729 5729
5740 5740 5738 5737 5734 5731 5728 5727 5723 5723 5722 5720 5716 5710 5708 5708 5708 5708 5709 5710 5712 5712 5712 5712 5711 5711 5710 5709 5709 5708 5707 5707 5708 5708 5706 5708 5713 5719 5723 5723 5724 5725 5725
5727 5726 5726 5725 5723 5722 5718 5717 5715 5712 5712 5712 5710 5707 5704 5704 5703 5703 5704 5705 5707 5707 5707 5705 5705 5705 5705 5704 5703 5703 5702 5701 5701 5703 5701 5700 5701 5706 5713 5716 5719 5720 5721
5716 5714 5713 5712 5712 5712 5710 5707 5705 5704 5705 5705 5703 5700 5697 5695 5695 5696 5698 5699 5701 5700 5700 5700 5700 5699 5699 5698 5698 5698 5697 5696 5695 5696 5697 5699 5700 5699 5700 5707 5711 5714 5716
5704 5703 5703 5703 5703 5703 5701 5698 5697 5696 5695 5695 5694 5692 5689 5689 5689 5689 5690 5691 5692 5693 5693 5692 5693 5692 5692 5692 5691 5691 5691 5691 5690 5690 5691 5692 5693 5694 5693 5695 5701 5707 5711
5696 5695 5695 5695 5694 5694 5692 5690 5689 5687 5686 5685 5683 5681 5679 5679 5680 5679 5679 5680 5681 5682 5683 5683 5683 5684 5684 5685 5684 5684 5684 5684 5684 5685 5686 5687 5687 5689 5689 5690 5693 5697 5703
5689 5687 5687 5686 5685 5684 5682 5681 5679 5676 5675 5673 5671 5670 5669 5668 5668 5667 5667 5668 5668 5669 5670 5671 5672 5673 5675 5676 5676 5676 5676 5677 5678 5679 5681 5682 5684 5686 5686 5686 5687 5689 5695
5683 5680 5679 5678 5676 5675 5674 5671 5668 5665 5663 5660 5658 5657 5656 5654 5653 5653 5653 5653 5653 5655 5657 5658 5660 5661 5663 5665 5666 5667 5667 5669 5670 5672 5674 5675 5678 5680 5681 5682 5682 5683 5687
5677 5674 5673 5670 5667 5665 5663 5660 5656 5653 5650 5648 5645 5642 5641 5639 5638 5637 5637 5637 5638 5639 5640 5642 5645 5646 5649 5651 5654 5656 5658 5660 5662 5664 5666 5668 5671 5673 5675 5677 5677 5677 5678
5670 5668 5665 5661 5658 5654 5651 5647 5643 5640 5638 5635 5631 5629 5626 5624 5622 5620 5619 5619 5620 5621 5622 5624 5626 5629 5633 5636 5638 5641 5645 5647 5651 5654 5657 5659 5662 5665 5667 5670 5672 5673 5674
5663 5660 5657 5653 5648 5643 5638 5633 5629 5625 5623 5620 5618 5614 5612 5608 5605 5602 5602 5601 5601 5602 5603 5605 5607 5610 5614 5618 5621 5625 5629 5632 5637 5641 5646 5649 5652 5655 5658 5661 5664 5667 5669
5655 5651 5646 5641 5635 5629 5624 5619 5615 5610 5607 5605 5602 5599 5596 5592 5588 5586 5586 5584 5583 5583 5584 5586 5588 5591 5595 5599 5603 5606 5612 5616 5621 5626 5632 5637 5641 5645 5649 5652 5656 5660 5663
5645 5639 5633 5626 5621 5616 5611 5606 5602 5597 5594 5590 5586 5583 5580 5577 5576 5574 5573 5571 5569 5569 5568 5569 5570 5573 5576 5580 5584 5588 5593 5599 5605 5611 5617 5623 5628 5634 5638 5642 5647 5652 5656
5632 5625 5619 5613 5608 5603 5598 5593 5589 5585 5581 5576 5572 5568 5567 5565 5565 5564 5562 5560 5559 5558 5557 5557 5557 5558 5560 5563 5566 5571 5575 5581 5588 5595 5602 5609 5615 5622 5627 5632 5638 5643 5648
5621 5614 5608 5603 5597 5592 5587 5582 5577 5573 5568 5563 5559 5557 5556 5554 5553 5551 5551 5551 5550 5550 5549 5548 5548 5547 5548 5550 5551 5554 5559 5564 5570 5578 5586 5594 5603 5610 5616 5622 5629 5634 5640
5612 5607 5600 5594 5588 5582 5577 5572 5566 5561 5555 5550 5547 5545 5542 5541 5540 5540 5540 5540 5541 5541 5540 5540 5540 5540 5541 5543 5543 5543 5545 5549 5553 5561 5570 5578 5588 5597 5605 5613 5620 5626 5633
5604 5598 5591 5585 5578 5572 5565 5559 5555 5549 5543 5538 5535 5532 5530 5529 5528 5529 5529 5530 5531 5532 5532 5533 5534 5535 5535 5536 5536 5536 5536 5538 5541 5546 5554 5563 5574 5583 5592 5601 5610 5618 5626
5596 5589 5583 5576 5569 5562 5556 5549 5544 5538 5532 5528 5524 5521 5518 5517 5516 5516 5517 5518 5520 5521 5523 5525 5527 5528 5531 5531 5531 5531 5531 5531 5533 5537 5542 5550 5559 5569 5579 5589 5600 5610 5619
5588 5581 5575 5568 5560 5553 5547 5541 5535 5529 5523 5518 5514 5511 5508 5506 5504 5504 5505 5507 5508 5511 5513 5517 5520 5521 5524 5526 5527 5526 5526 5526 5528 5530 5534 5540 5548 5558 5567 5578 5590 5601 5612
5581 5574 5568 5561 5553 5547 5539 5532 5527 5520 5514 5509 5504 5501 5497 5495 5494 5494 5495 5496 5498 5501 5504 5508 5512 5514 5518 5520 5521 5521 5521 5521 5523 5525 5528 5533 5540 5547 5556 5567 5580 5592 5604
5574 5568 5560 5553 5546 5540 5532 5525 5518 5512 5506 5500 5495 5491 5488 5485 5485 5485 5485 5486 5488 5491 5495 5499 5503 5507 5510 5513 5515 5516 5516 5518 5519 5521 5524 5528 5533 5539 5547 5558 5571 5584 5594
5570 5563 5555 5549 5542 5534 5525 5518 5511 5505 5498 5492 5488 5484 5481 5479 5480 5478 5478 5479 5480 5482 5486 5490 5495 5499 5503 5506 5510 5512 5513 5514 5516 5518 5521 5524 5527 5532 5540 5550 5562 5573 5583
5565 5558 5550 5544 5538 5529 5520 5512 5507 5500 5494 5488 5484 5480 5477 5475 5473 5472 5472 5472 5473 5476 5480 5483 5488 5493 5497 5500 5504 5507 5509 5511 5512 5514 5517 5519 5522 5527 5534 5544 5554 5565 5577
5561 5554 5547 5541 5535 5527 5518 5510 5504 5497 5491 5486 5481 5477 5473 5471 5469 5467 5467 5468 5469 5471 5475 5478 5483 5487 5491 5495 5499 5502 5505 5507 5508 5509 5511 5513 5517 5522 5529 5539 5549 5560 5573
5557 5550 5543 5537 5531 5525 5518 5510 5502 5495 5489 5484 5480 5475 5471 5468 5466 5465 5464 5465 5467 5469 5472 5476 5479 5483 5488 5493 5495 5499 5501 5504 5505 5505 5506 5509 5514 5519 5526 5535 5545 5557 5568
5554 5548 5542 5535 5530 5524 5517 5510 5502 5494 5488 5484 5479 5474 5470 5467 5465 5463 5463 5463 5464 5467 5469 5472 5476 5481 5485 5489 5491 5494 5497 5498 5499 5501 5505 5508 5511 5517 5525 5533 5543 5553 5564